Tracking 19638 objects as of 20-Apr-2019
HD Live streaming from Space Station
objects crossing your sky now

SL-18 DEB

Track SL-18 DEB now!
10-day predictions


NORAD ID: 28283
Int'l Code: 1993-014L
Perigee: 572.8 km
Apogee: 644.9 km
Inclination: 75.7 °
Period: 96.7 minutes
Semi major axis: 6979 km
RCS: 0.0138 m2 (small)
Launch date: March 25, 1993
Source: Commonwealth of Independent States (former USSR) (CIS)
Launch site: PLESETSK MISSILE AND SPACE COMPLEX (PKMTR)

Note: This is SATELLITE DEBRIS
aabbcc
Your satellite tracking list
Your tracking list is empty




NASA's NSSDC Master Catalog

Two Line Element Set (TLE):
1 28283U 93014L   19107.72388531 +.00004071 +00000-0 +42619-3 0  9992
2 28283 075.7411 127.3282 0051666 040.6137 319.8888 14.88801880310577
Source of the keplerian elements: AFSPC